Weather History for KPMV - October, 2012

Change the Weather History Date:

Thursday, October 4, 2012

  Actual Average (KOFF) Record (KOFF)
Temperature  
Mean Temperature 54 °F -  
Max Temperature 61 °F 69 °F 89 °F (2005)
Min Temperature 45 °F 46 °F 30 °F (1999)
Degree Days  
Heating Degree Days 11    
Growing Degree Days 4 (Base 50)    
Moisture  
Dew Point 35 °F    
Average Humidity 53    
Maximum Humidity 76    
Minimum Humidity 36    
Precipitation  
Precipitation 0.00 in - - ()
Sea Level Pressure  
Sea Level Pressure 30.19 in    
Wind  
Wind Speed 13 mph (NW)    
Max Wind Speed 22 mph    
Max Gust Speed 30 mph    
Visibility 10 miles    
Events Thunderstorm    
Averages and records for this station are not official NWS values.
T = Trace of Precipitation, MM = Missing Value Source: NWS Daily Summary

Daily Weather History Graph

Daily Weather History Graph

Search for Another Location

Airport or City:

Trip Planner

Search our weather history database for the weather conditions in past years. The results will help you decide how hot, cold, wet, or windy it might be!

Date:

Astronomy

Oct. 04, 2012 Rise Set
Actual Time 7:23 AM CDT 6:59 PM CDT
Civil Twilight 6:56 AM CDT 7:27 PM CDT
Nautical Twilight 6:24 AM CDT 7:58 PM CDT
Astronomical Twilight 5:52 AM CDT 8:30 PM CDT
Moon 9:34 PM CDT (10/4) 11:43 AM CDT (10/4)
Length of Visible Light 12h 30m
Length of Day
11h 35m
Waning Gibbous, 82% of the Moon is Illuminated
Oct 4
Waning Gibbous
Oct 8
Last Quarter
Oct 15
New
Oct 21
First Quarter
Oct 29
Full

Hourly Weather History & Observations

Time (CDT) Temp. Windchill Dew Point Humidity Pressure Visibility Wind Dir Wind Speed Gust Speed Precip Events Conditions
12:15 AM 63.3 °F - 41.0 °F 44% 29.94 in 10.0 mi West 11.5 mph - N/A   Clear
12:35 AM 61.7 °F - 40.6 °F 46% 29.94 in 10.0 mi Calm Calm - N/A   Clear
12:55 AM 61.7 °F - 40.8 °F 46% 29.93 in 10.0 mi SSE 3.5 mph - N/A   Clear
1:15 AM 60.8 °F - 41.2 °F 48% 29.96 in 10.0 mi NW 12.7 mph - N/A   Clear
1:35 AM 60.3 °F - 41.0 °F 49% 29.98 in 10.0 mi NW 20.7 mph 29.9 mph N/A   Clear
1:55 AM 59.2 °F - 41.0 °F 51% 29.99 in 10.0 mi NW 15.0 mph 25.3 mph N/A   Clear
2:15 AM 57.2 °F - 40.5 °F 54% 30.00 in 10.0 mi NNW 12.7 mph 24.2 mph N/A   Clear
2:35 AM 54.9 °F - 40.5 °F 58% 30.02 in 10.0 mi NW 16.1 mph 20.7 mph N/A   Clear
2:55 AM 54.5 °F - 40.5 °F 59% 30.05 in 10.0 mi NW 20.7 mph 26.5 mph N/A   Clear
3:15 AM 54.1 °F - 40.3 °F 59% 30.03 in 10.0 mi NNW 19.6 mph 26.5 mph N/A Thunderstorm Scattered Clouds
3:35 AM 53.8 °F - 41.0 °F 62% 30.04 in 10.0 mi NW 15.0 mph 23.0 mph N/A Thunderstorm Thunderstorm
3:55 AM 52.0 °F - 42.8 °F 71% 30.05 in 10.0 mi NNW 13.8 mph 21.9 mph N/A   Clear
4:15 AM 51.3 °F - 43.3 °F 74% 30.03 in 10.0 mi NNW 9.2 mph - N/A Thunderstorm Clear
4:35 AM 51.8 °F - 42.8 °F 71% 30.09 in 10.0 mi WNW 11.5 mph - N/A   Scattered Clouds
4:55 AM 50.2 °F - 43.0 °F 76% 30.10 in 10.0 mi NW 16.1 mph 25.3 mph N/A   Light Drizzle
5:15 AM 50.0 °F - 42.8 °F 76% 30.11 in 10.0 mi NW 17.3 mph 21.9 mph N/A   Scattered Clouds
5:35 AM 50.0 °F - 41.4 °F 72% 30.11 in 10.0 mi NW 19.6 mph 26.5 mph N/A   Scattered Clouds
5:55 AM 49.1 °F - 40.5 °F 72% 30.11 in 10.0 mi NW 12.7 mph - N/A   Scattered Clouds
6:15 AM 48.4 °F - 40.1 °F 73% 30.15 in 10.0 mi NW 11.5 mph 21.9 mph N/A   Clear
6:35 AM 47.7 °F - 39.4 °F 73% 30.13 in 10.0 mi NW 10.4 mph 19.6 mph N/A Thunderstorm Clear
6:55 AM 47.3 °F - 38.8 °F 72% 30.13 in 10.0 mi NNW 15.0 mph 23.0 mph N/A   Clear
7:15 AM 47.3 °F - 38.1 °F 70% 30.16 in 10.0 mi NW 17.3 mph - N/A Thunderstorm Clear
7:35 AM 47.3 °F - 37.6 °F 69% 30.16 in 10.0 mi NW 18.4 mph 27.6 mph N/A   Scattered Clouds
7:55 AM 46.9 °F - 36.5 °F 67% 30.16 in 10.0 mi NNW 17.3 mph 28.8 mph N/A   Mostly Cloudy
8:15 AM 46.8 °F - 36.7 °F 68% 30.18 in 10.0 mi NW 17.3 mph 21.9 mph N/A Thunderstorm Thunderstorm
8:35 AM 46.4 °F 38.5 °F 35.1 °F 65% 30.19 in 10.0 mi NW 21.9 mph 26.5 mph N/A Thunderstorm Thunderstorm
8:55 AM 45.9 °F 37.8 °F 35.2 °F 66% 30.20 in 10.0 mi NW 21.9 mph 28.8 mph N/A   Scattered Clouds
9:15 AM 46.9 °F - 35.6 °F 65% 30.21 in 10.0 mi NW 18.4 mph 25.3 mph N/A Thunderstorm Scattered Clouds
9:35 AM 46.8 °F - 35.1 °F 64% 30.21 in 10.0 mi NW 19.6 mph 26.5 mph N/A Thunderstorm Mostly Cloudy
9:55 AM 47.3 °F - 35.2 °F 63% 30.21 in 10.0 mi NW 19.6 mph 24.2 mph N/A Thunderstorm Thunderstorm
10:15 AM 47.7 °F - 35.2 °F 62% 30.24 in 10.0 mi NW 15.0 mph 24.2 mph N/A   Overcast
10:35 AM 49.3 °F - 35.1 °F 58% 30.23 in 10.0 mi NNW 16.1 mph 23.0 mph N/A Thunderstorm Overcast
10:55 AM 49.1 °F - 34.2 °F 56% 30.25 in 10.0 mi NW 18.4 mph 23.0 mph N/A   Overcast
11:15 AM 49.8 °F - 32.5 °F 51% 30.26 in 10.0 mi NW 17.3 mph 28.8 mph N/A   Mostly Cloudy
11:35 AM 51.8 °F - 33.6 °F 50% 30.25 in 10.0 mi NW 19.6 mph 24.2 mph N/A   Scattered Clouds
11:55 AM 51.3 °F - 33.4 °F 51% 30.26 in 10.0 mi NW 16.1 mph 19.6 mph N/A   Scattered Clouds
12:15 PM 52.0 °F - 33.6 °F 50% 30.26 in 10.0 mi NW 15.0 mph 25.3 mph N/A Thunderstorm Scattered Clouds
12:35 PM 52.7 °F - 33.4 °F 48% 30.26 in 10.0 mi NW 13.8 mph 25.3 mph N/A   Scattered Clouds
12:55 PM 52.7 °F - 32.9 °F 47% 30.27 in 10.0 mi NW 16.1 mph 25.3 mph N/A   Scattered Clouds
1:35 PM 53.8 °F - 32.9 °F 45% 30.26 in 10.0 mi NNW 11.5 mph 24.2 mph N/A   Scattered Clouds
1:55 PM 54.9 °F - 32.5 °F 43% 30.26 in 10.0 mi NNW 11.5 mph 21.9 mph N/A   Clear
2:15 PM 55.6 °F - 32.0 °F 41% 30.25 in 10.0 mi NW 15.0 mph 24.2 mph N/A   Clear
2:35 PM 56.8 °F - 32.0 °F 39% 30.24 in 10.0 mi NW 15.0 mph 23.0 mph N/A   Clear
2:55 PM 56.8 °F - 32.0 °F 39% 30.24 in 10.0 mi NNW 15.0 mph 24.2 mph N/A   Clear
3:15 PM 57.2 °F - 31.8 °F 38% 30.23 in 10.0 mi WNW 11.5 mph 21.9 mph N/A   Clear
3:35 PM 57.4 °F - 31.8 °F 38% 30.23 in 10.0 mi NNW 15.0 mph 19.6 mph N/A   Clear
3:55 PM 57.4 °F - 31.8 °F 38% 30.23 in 10.0 mi NNW 15.0 mph 20.7 mph N/A   Clear
4:15 PM 55.4 °F - 31.3 °F 40% 30.24 in 10.0 mi NNW 9.2 mph - N/A   Clear
4:35 PM 55.4 °F - 31.1 °F 40% 30.23 in 10.0 mi NW 12.7 mph 20.7 mph N/A   Clear
4:55 PM 57.7 °F - 30.7 °F 36% 30.24 in 10.0 mi NNW 11.5 mph 18.4 mph N/A   Clear
5:15 PM 56.8 °F - 30.4 °F 37% 30.23 in 10.0 mi NNW 11.5 mph 19.6 mph N/A   Clear
5:35 PM 56.1 °F - 30.4 °F 38% 30.23 in 10.0 mi NNW 11.5 mph - N/A   Clear
5:55 PM 55.4 °F - 30.6 °F 39% 30.24 in 10.0 mi NNW 8.1 mph - N/A   Clear
6:15 PM 54.3 °F - 29.8 °F 39% 30.24 in 10.0 mi NNW 9.2 mph - N/A   Clear
6:35 PM 53.6 °F - 30.4 °F 41% 30.24 in 10.0 mi NNW 11.5 mph 17.3 mph N/A   Clear
6:55 PM 52.9 °F - 30.2 °F 42% 30.25 in 10.0 mi NNW 6.9 mph - N/A   Clear
7:15 PM 52.3 °F - 30.6 °F 43% 30.26 in 10.0 mi NW 9.2 mph - N/A   Clear
7:35 PM 51.4 °F - 30.7 °F 45% 30.27 in 10.0 mi NW 8.1 mph - N/A   Clear
7:55 PM 51.3 °F - 30.7 °F 45% 30.27 in 10.0 mi NW 6.9 mph - N/A   Clear
8:15 PM 50.9 °F - 31.6 °F 48% 30.28 in 10.0 mi NW 5.8 mph - N/A   Clear
8:35 PM 50.5 °F - 31.6 °F 48% 30.26 in 10.0 mi NNW 4.6 mph - N/A   Clear
8:55 PM 50.2 °F - 31.6 °F 49% 30.26 in 10.0 mi NNW 6.9 mph - N/A   Clear
9:15 PM 50.4 °F - 31.5 °F 48% 30.28 in 10.0 mi NW 8.1 mph - N/A   Scattered Clouds
9:35 PM 50.2 °F - 31.3 °F 48% 30.29 in 10.0 mi NW 9.2 mph - N/A   Scattered Clouds
9:55 PM 50.0 °F - 31.1 °F 48% 30.29 in 10.0 mi NW 8.1 mph - N/A   Clear
10:15 PM 49.6 °F - 30.9 °F 49% 30.30 in 10.0 mi NNW 8.1 mph - N/A   Scattered Clouds
10:35 PM 49.5 °F - 30.7 °F 49% 30.27 in 10.0 mi North 10.4 mph 16.1 mph N/A   Scattered Clouds
10:55 PM 49.5 °F - 30.6 °F 48% 30.29 in 10.0 mi NNW 5.8 mph - N/A   Scattered Clouds
11:15 PM 49.3 °F - 30.7 °F 49% 30.29 in 10.0 mi NNW 6.9 mph - N/A   Mostly Cloudy
11:35 PM 49.3 °F - 30.7 °F 49% 30.30 in 10.0 mi NNW 8.1 mph - N/A   Mostly Cloudy
11:55 PM 48.7 °F - 30.2 °F 49% 30.30 in 10.0 mi NNW 10.4 mph - N/A   Overcast